EXS29EM EGCC-LGSM

Flight info

Callsign EXS29EM
Flight time N/A
Altitude 35000
Route SONEX UL975 DESIG L603 DOLAS DCT NAVPI DCT NOLRU DCT DOJOH DCT DODEN DCT NEGIX DCT DINKU M867 XERUM DCT BAVAX DCT RADIZ DCT ABISO DCT NEMEK DCT GACMO DCT AKIKA DCT ENFAR DCT TALAS UN130 MES L609 PIPEN Y94 ORMOS
Aircraft A21N/M-SDE3FGHIRWY/LB1

Departure

Time 2026-05-07 15:15
Airport Manchester Airport (EGCC)

Arrival

Time N/A
Airport Samos Airport (LGSM)
Time Latitude Longitude Altitude Speed Heading
2026-05-07 14:21 53.36932 -2.29042 259 ft 0 kts 318°
2026-05-07 14:57 53.36929 -2.29039 259 ft 2 kts 318°
2026-05-07 14:57 53.36918 -2.29022 259 ft 2 kts 318°
2026-05-07 14:57 53.36909 -2.29008 258 ft 0 kts 318°
2026-05-07 14:57 53.36902 -2.28992 259 ft 2 kts 280°
2026-05-07 14:58 53.36904 -2.28968 259 ft 1 kts 233°
2026-05-07 14:58 53.36909 -2.28960 259 ft 1 kts 224°
2026-05-07 14:58 53.36910 -2.28959 259 ft 0 kts 224°
2026-05-07 15:00 53.36909 -2.28960 258 ft 0 kts 224°
2026-05-07 15:01 53.36905 -2.28966 258 ft 1 kts 225°
2026-05-07 15:01 53.36892 -2.28988 258 ft 4 kts 226°
2026-05-07 15:01 53.36864 -2.29036 258 ft 6 kts 226°
2026-05-07 15:01 53.36818 -2.29081 258 ft 8 kts 199°
2026-05-07 15:02 53.36754 -2.29104 258 ft 10 kts 184°
2026-05-07 15:02 53.36687 -2.29051 258 ft 11 kts 135°
2026-05-07 15:02 53.36644 -2.28942 258 ft 11 kts 111°
2026-05-07 15:02 53.36602 -2.28828 258 ft 11 kts 115°
2026-05-07 15:03 53.36556 -2.28715 258 ft 12 kts 134°
2026-05-07 15:03 53.36496 -2.28614 258 ft 12 kts 135°
2026-05-07 15:03 53.36436 -2.28511 258 ft 12 kts 133°
2026-05-07 15:03 53.36389 -2.28397 258 ft 12 kts 135°
2026-05-07 15:04 53.36329 -2.28294 258 ft 12 kts 134°
2026-05-07 15:04 53.36268 -2.28191 258 ft 12 kts 136°
2026-05-07 15:04 53.36205 -2.28087 258 ft 12 kts 133°
2026-05-07 15:04 53.36143 -2.27981 258 ft 12 kts 136°
2026-05-07 15:05 53.36081 -2.27873 258 ft 12 kts 138°
2026-05-07 15:05 53.35997 -2.27833 258 ft 13 kts 186°
2026-05-07 15:05 53.35907 -2.27848 258 ft 13 kts 186°
2026-05-07 15:05 53.35834 -2.27777 258 ft 12 kts 132°
2026-05-07 15:06 53.35771 -2.27673 258 ft 12 kts 151°
2026-05-07 15:06 53.35689 -2.27612 258 ft 12 kts 150°
2026-05-07 15:06 53.35632 -2.27544 258 ft 9 kts 141°
2026-05-07 15:06 53.35582 -2.27475 258 ft 2 kts 140°
2026-05-07 15:07 53.35577 -2.27468 258 ft 2 kts 140°
2026-05-07 15:08 53.35547 -2.27426 258 ft 12 kts 140°
2026-05-07 15:08 53.35461 -2.27307 258 ft 16 kts 141°
2026-05-07 15:08 53.35366 -2.27199 258 ft 16 kts 165°
2026-05-07 15:08 53.35269 -2.27212 258 ft 10 kts 191°
2026-05-07 15:09 53.35194 -2.27237 258 ft 11 kts 191°
2026-05-07 15:09 53.35162 -2.27247 258 ft 0 kts 191°
2026-05-07 15:09 53.35157 -2.27249 258 ft 1 kts 191°
2026-05-07 15:09 53.35151 -2.27250 258 ft 0 kts 191°
2026-05-07 15:11 53.35151 -2.27251 258 ft 0 kts 191°
2026-05-07 15:11 53.35146 -2.27252 258 ft 1 kts 191°
2026-05-07 15:11 53.35130 -2.27257 258 ft 4 kts 190°
2026-05-07 15:12 53.35078 -2.27272 258 ft 9 kts 190°
2026-05-07 15:12 53.35013 -2.27309 258 ft 10 kts 217°
2026-05-07 15:12 53.34998 -2.27336 258 ft 0 kts 230°
2026-05-07 15:12 53.34994 -2.27344 258 ft 1 kts 230°
2026-05-07 15:13 53.34989 -2.27353 258 ft 0 kts 231°
2026-05-07 15:14 53.34989 -2.27355 258 ft 4 kts 231°
2026-05-07 15:14 53.34804 -2.27737 259 ft 77 kts 231°
2026-05-07 15:14 53.34326 -2.28728 259 ft 137 kts 231°
2026-05-07 15:15 53.33631 -2.30152 405 ft 168 kts 230°
2026-05-07 15:15 53.32904 -2.31635 933 ft 168 kts 230°
2026-05-07 15:15 53.32175 -2.33165 1446 ft 169 kts 233°
2026-05-07 15:15 53.31855 -2.35042 1926 ft 180 kts 278°
2026-05-07 15:16 53.32384 -2.37005 2326 ft 194 kts 298°
2026-05-07 15:16 53.33075 -2.39045 2666 ft 211 kts 297°
2026-05-07 15:16 53.34059 -2.40997 2982 ft 234 kts 325°
2026-05-07 15:16 53.35621 -2.42064 3320 ft 255 kts 346°
2026-05-07 15:17 53.37410 -2.42743 3816 ft 271 kts 347°
2026-05-07 15:17 53.39261 -2.43493 4462 ft 277 kts 345°
2026-05-07 15:17 53.41117 -2.44365 4889 ft 280 kts 343°
2026-05-07 15:17 53.42987 -2.45297 5613 ft 284 kts 346°
2026-05-07 15:18 53.44929 -2.45383 6451 ft 285 kts 17°
2026-05-07 15:18 53.46599 -2.43787 7185 ft 285 kts 48°
2026-05-07 15:18 53.47568 -2.40919 7866 ft 283 kts 79°
2026-05-07 15:18 53.47855 -2.37690 8561 ft 285 kts 87°
2026-05-07 15:19 53.48057 -2.34392 9196 ft 289 kts 86°
2026-05-07 15:19 53.48327 -2.31023 9853 ft 293 kts 84°
2026-05-07 15:19 53.48661 -2.27656 10431 ft 299 kts 83°
2026-05-07 15:19 53.49046 -2.24134 10780 ft 315 kts 82°
2026-05-07 15:20 53.49458 -2.20410 11073 ft 331 kts 82°
2026-05-07 15:20 53.49869 -2.16531 11372 ft 346 kts 83°
2026-05-07 15:20 53.50291 -2.12511 11646 ft 361 kts 82°
2026-05-07 15:20 53.50734 -2.08284 11903 ft 376 kts 82°
2026-05-07 15:21 53.51191 -2.03907 12209 ft 388 kts 82°
2026-05-07 15:21 53.51664 -1.99385 12734 ft 394 kts 82°
2026-05-07 15:21 53.52135 -1.94851 13367 ft 396 kts 83°
2026-05-07 15:21 53.52351 -1.90270 13950 ft 395 kts 93°
2026-05-07 15:22 53.52077 -1.85757 14493 ft 396 kts 103°
2026-05-07 15:22 53.51384 -1.81265 15041 ft 398 kts 108°
2026-05-07 15:22 53.50590 -1.76841 15547 ft 402 kts 109°
2026-05-07 15:22 53.49768 -1.72324 16066 ft 405 kts 109°
2026-05-07 15:23 53.48946 -1.67760 16570 ft 408 kts 108°
2026-05-07 15:23 53.48138 -1.63234 17068 ft 411 kts 108°
2026-05-07 15:23 53.47321 -1.58635 17557 ft 414 kts 108°
2026-05-07 15:23 53.46493 -1.53994 18032 ft 417 kts 108°
2026-05-07 15:24 53.45664 -1.49362 18495 ft 420 kts 108°
2026-05-07 15:24 53.44815 -1.44637 18962 ft 423 kts 108°
2026-05-07 15:24 53.43972 -1.39945 19423 ft 425 kts 108°
2026-05-07 15:24 53.43115 -1.35202 19875 ft 427 kts 108°
2026-05-07 15:25 53.42252 -1.30434 20307 ft 429 kts 109°
2026-05-07 15:25 53.41383 -1.25648 20728 ft 432 kts 109°
2026-05-07 15:25 53.40509 -1.20826 21148 ft 434 kts 109°
2026-05-07 15:25 53.39632 -1.16015 21545 ft 436 kts 109°
2026-05-07 15:26 53.38746 -1.11159 21937 ft 439 kts 109°
2026-05-07 15:26 53.37850 -1.06270 22317 ft 441 kts 109°
2026-05-07 15:26 53.36948 -1.01362 22688 ft 443 kts 109°
2026-05-07 15:26 53.36051 -0.96487 23049 ft 445 kts 109°
2026-05-07 15:27 53.35129 -0.91489 23400 ft 447 kts 109°
2026-05-07 15:27 53.34217 -0.86561 23732 ft 450 kts 109°
2026-05-07 15:27 53.33285 -0.81534 24068 ft 452 kts 109°
2026-05-07 15:27 53.32361 -0.76572 24396 ft 454 kts 109°
2026-05-07 15:28 53.31415 -0.71508 24772 ft 454 kts 109°
2026-05-07 15:28 53.30479 -0.66510 25269 ft 452 kts 109°
2026-05-07 15:28 53.29553 -0.61564 25785 ft 449 kts 109°
2026-05-07 15:28 53.28622 -0.56612 26261 ft 446 kts 109°
2026-05-07 15:29 53.27696 -0.51700 26709 ft 444 kts 109°
2026-05-07 15:29 53.26769 -0.46800 27141 ft 442 kts 108°
2026-05-07 15:29 53.25848 -0.41940 27554 ft 440 kts 108°
2026-05-07 15:29 53.24921 -0.37065 27959 ft 438 kts 108°
2026-05-07 15:30 53.24010 -0.32287 28340 ft 437 kts 109°
2026-05-07 15:30 53.23085 -0.27437 28722 ft 435 kts 109°
2026-05-07 15:30 53.22176 -0.22687 29088 ft 434 kts 109°
2026-05-07 15:30 53.21263 -0.17929 29460 ft 432 kts 109°
2026-05-07 15:31 53.20344 -0.13154 29827 ft 431 kts 109°
2026-05-07 15:31 53.19440 -0.08468 30184 ft 429 kts 109°
2026-05-07 15:31 53.18832 -0.05327 30421 ft 428 kts 109°
2026-05-07 15:31 53.17619 0.00926 30880 ft 425 kts 109°
2026-05-07 15:32 53.16710 0.05605 31201 ft 424 kts 109°
2026-05-07 15:32 53.15810 0.10218 31461 ft 423 kts 109°
2026-05-07 15:32 53.14900 0.14879 31671 ft 424 kts 108°
2026-05-07 15:32 53.13992 0.19516 31847 ft 425 kts 108°
2026-05-07 15:33 53.13072 0.24200 32024 ft 426 kts 108°
2026-05-07 15:33 53.12154 0.28859 32195 ft 427 kts 108°
2026-05-07 15:33 53.11232 0.33530 32363 ft 428 kts 108°
2026-05-07 15:33 53.10305 0.38221 32527 ft 428 kts 108°
2026-05-07 15:34 53.09376 0.42906 32705 ft 429 kts 108°
2026-05-07 15:34 53.08449 0.47575 32875 ft 429 kts 108°
2026-05-07 15:34 53.07516 0.52262 33030 ft 429 kts 108°
2026-05-07 15:34 53.06571 0.56997 33040 ft 430 kts 108°
2026-05-07 15:35 53.04688 0.66393 33051 ft 430 kts 109°
2026-05-07 15:35 53.02805 0.75750 33052 ft 430 kts 109°